User: anonymous
Location: Unspecified
(0.0000°N, 0.0000°E)
Time: 15:38:41
(UTC+02:00)
Language:

GPS 2-05 Rocket1 - Orbit

View from above orbital plane
View from above orbital plane
View from above satellite
View from above satellite

Ground track
Ground track

The orbit data is extracted from the following two-line orbital elements,

1 20362U 89097B   14242.61892303  .00007787  00000-0  27127-3 0  5022
2 20362 035.6231 298.0239 0107449 047.5653 082.5361 15.23638811342241
Epoch (UTC): 30 August 2014 14:51:14
Eccentricity: 0.0107449
inclination: 35.6231°
perigee height: 421 km
apogee height: 569 km
right ascension of ascending node: 298.0239°
argument of perigee: 47.5653°
revolutions per day: 15.23638811
mean anomaly at epoch: 82.5361°
orbit number at epoch: 34224

The dashed part of the orbit path shows where the satellite is in the earth's shadow,  

DLR